This is the latest recevied weather packets stored in our database for station/object dl9mfl-6. If no packets are shown the sender has not sent any weather packets the latest 1 day(s).
| Time | Temp. | Humidity | Pressure | Rain* | Wind** | Luminosity | Snow |
|---|---|---|---|---|---|---|---|
| 1778013089 | 13.33° C | 79% | 1007 hPa | 0 mm | 2.68 m/s, 298° | - | - |
| 1778013029 | 13.33° C | 79% | 1006.9 hPa | 0 mm | 2.68 m/s, 257° | - | - |
| 1778012969 | 13.33° C | 79% | 1007.1 hPa | 0 mm | 2.68 m/s, 227° | - | - |
| 1778012909 | 13.33° C | 79% | 1007 hPa | 0 mm | 2.68 m/s, 278° | - | - |
| 1778012849 | 13.33° C | 79% | 1007 hPa | 0 mm | 2.68 m/s, 250° | - | - |
| 1778012789 | 13.33° C | 80% | 1007 hPa | 0 mm | 2.68 m/s, 265° | - | - |
| 1778012729 | 13.33° C | 80% | 1007 hPa | 0 mm | 2.68 m/s, 269° | - | - |
| 1778012672 | 13.33° C | 80% | 1007.1 hPa | 0 mm | 2.68 m/s, 277° | - | - |
| 1778012657 | 13.33° C | 80% | 1007.1 hPa | 0 mm | 2.68 m/s, 249° | - | - |
| 1778012489 | 13.33° C | 80% | 1007.1 hPa | 0 mm | 2.68 m/s, 259° | - | - |
| 1778012429 | 13.33° C | 80% | 1007.1 hPa | 0 mm | 2.68 m/s, 259° | - | - |
| 1778012369 | 13.33° C | 80% | 1007.2 hPa | 0 mm | 2.68 m/s, 244° | - | - |
| 1778012310 | 13.33° C | 81% | 1007.3 hPa | 0 mm | 2.68 m/s, 269° | - | - |
| 1778012248 | 13.89° C | 81% | 1007.2 hPa | 0 mm | 2.68 m/s, 254° | - | - |
| 1778012189 | 13.89° C | 81% | 1007.2 hPa | 0 mm | 2.68 m/s, 229° | - | - |
| 1778012129 | 13.89° C | 81% | 1007.2 hPa | 0 mm | 2.68 m/s, 259° | - | - |
| 1778012069 | 13.89° C | 81% | 1007.2 hPa | 0 mm | 2.68 m/s, 269° | - | - |
| 1778012008 | 13.89° C | 81% | 1007.2 hPa | 0 mm | 2.68 m/s, 265° | - | - |
| 1778011980 | 13.89° C | 81% | 1007.3 hPa | 0 mm | 2.68 m/s, 238° | - | - |
| 1778011889 | 13.89° C | 81% | 1007.2 hPa | 0 mm | 2.68 m/s, 242° | - | - |
| 1778011828 | 13.89° C | 81% | 1007.2 hPa | 0 mm | 3.13 m/s, 266° | - | - |
| 1778011768 | 13.89° C | 81% | 1007.2 hPa | 0 mm | 3.13 m/s, 278° | - | - |
| 1778011710 | 13.89° C | 81% | 1007.1 hPa | 0 mm | 3.58 m/s, 249° | - | - |
| 1778011649 | 13.89° C | 80% | 1007.2 hPa | 0 mm | 3.58 m/s, 261° | - | - |
| 1778011589 | 13.89° C | 80% | 1007.2 hPa | 0 mm | 3.58 m/s, 234° | - | - |
* Rain latest hour (hover to see other rain measurements)
** Current wind speed in m/s (hover to see current wind gust speed)